Regional Weather Roundup
Issued by NWS Goodland, KS

Home | Current Version | Previous Version | Text Only | Print | Product List | Glossary Off
Versions: 1 2 3 4 5 6 7 8 9 10 11 12 13 14 15 16 17 18 19 20 21 22 23 24 25 26 27 28 29 30 31 32 33 34 35 36 37 38 39 40 41 42 43 44 45 46 47 48 49 50

000
ASUS43 KGLD 190259
RWRGLD

GOODLAND FORECAST AREA HOURLY WEATHER ROUNDUP
NATIONAL WEATHER SERVICE GOODLAND KS
900 PM MDT FRI APR 18 2014

...OFFICIAL OBSERVATIONS...

CITY           SKY/WX    TMP DP  RH WIND       PRES   REMARKS
GOODLAND KS    PTCLDY    59  43  55 S24       29.93R
HILL CITY KS   CLEAR     62  41  46 S12G18    30.00R
IMPERIAL NEB   PTCLDY    63  43  48 S17       29.90R
MCCOOK NEB     CLEAR     62  43  49 S18G29    29.93R
AKRON CO       CLOUDY    61  34  36 SE16      29.88R
BURLINGTON CO  PTCLDY    60  40  47 SE20      29.92R
LIMON CO       CLOUDY    55  29  36 SE7       29.92R
$$

...UNOFFICIAL OBSERVATIONS...

CITY           SKY/WX    TMP DP  RH WIND       PRES   REMARKS
COLBY KS       CLEAR     61  46  59 SE22G28   29.96R
LENORA KS        N/A     59  32  36 S15         N/A
LEOTI KS         N/A     60  32  34 S22         N/A
NORTON KS      CLEAR     57  39  51 SE12G17   29.97S
SHARON SPRINGS   N/A     59  44  56 S17G28      N/A
WAKEENEY KS      N/A     62  37  39 MISG        N/A
KIT CARSON CO    N/A     64  40  42 MISG        N/A
$$



USA.gov is the U.S. government's official web portal to all federal, state and local government web resources and services.